This is the latest recevied weather packets stored in our database for station/object KGPT. If no packets are shown the sender has not sent any weather packets the latest 10 day(s).
| Time | Temp. | Humidity | Pressure | Rain* | Wind** | Luminosity | Snow |
|---|---|---|---|---|---|---|---|
| 1777677815 | 13.89° C | 93% | 1011.5 hPa | - | - | - | - |
| 1777677215 | 13.89° C | 93% | 1012.2 hPa | - | - | - | - |
| 1777676612 | 13.89° C | 93% | 1012.2 hPa | - | - | - | - |
| 1777676015 | 13.89° C | 93% | 1011.9 hPa | - | - | - | - |
| 1777675411 | 13.89° C | 93% | 1011.9 hPa | - | - | - | - |
| 1777674814 | 13.89° C | 93% | 1011.9 hPa | - | - | - | - |
| 1777674215 | 15° C | 93% | 1011.5 hPa | - | - | - | - |
| 1777673613 | 15.56° C | 87% | 1011.2 hPa | - | - | - | - |
| 1777673019 | 15.56° C | 93% | 1010.8 hPa | - | - | - | - |
| 1777672418 | 15.56° C | 93% | 1010.8 hPa | - | - | - | - |
| 1777671818 | 15.56° C | 100% | 1010.2 hPa | - | - | - | - |
| 1777671215 | 16.67° C | 93% | 1010.5 hPa | - | - | - | - |
| 1777670618 | 16.67° C | 93% | 1010.2 hPa | - | - | - | - |
| 1777670012 | 16.67° C | 93% | 1011.5 hPa | - | - | - | - |
| 1777669412 | 16.67° C | 93% | 1011.5 hPa | - | - | - | - |
| 1777668814 | 16.67° C | 93% | 1010.8 hPa | - | - | - | - |
| 1777668219 | 16.67° C | 93% | 1010.8 hPa | - | - | - | - |
| 1777667614 | 17.78° C | 88% | 1010.5 hPa | - | - | - | - |
| 1777667014 | 17.78° C | 88% | 1010.5 hPa | - | - | - | - |
| 1777666412 | 17.78° C | 88% | 1010.5 hPa | - | - | - | - |
| 1777665813 | 16.67° C | 93% | 1010.5 hPa | - | - | - | - |
| 1777665216 | 17.78° C | 88% | 1010.5 hPa | - | - | - | - |
| 1777664616 | 17.78° C | 88% | 1010.5 hPa | - | - | - | - |
| 1777664015 | 17.78° C | 88% | 1010.5 hPa | - | - | - | - |
| 1777663420 | 17.78° C | 88% | 1010.5 hPa | - | - | - | - |
* Rain since midnight (hover to see other rain measurements)
** Current wind speed in m/s (hover to see current wind gust speed)